User: anonymous   Login
Location: Unspecified
(0.0000°N, 0.0000°E)
Time: 20:50:16
(UTC+00:00)
Language:

A-11 Canister half - Orbit

View from above orbital plane
View from above orbital plane
View from above satellite
View from above satellite

Ground track
Ground track

The orbit data is extracted from the following two-line orbital elements,

1    53U 60009E   17177.02296423 -.00000086 +00000-0 +00000-0 0  9999
2    53 047.2778 012.3012 0099664 107.5426 253.6280 12.17202020536112
Epoch (UTC): 26 June 2017 00:33:04
Eccentricity: 0.0099664
inclination: 47.2778°
perigee height: 1525 km
apogee height: 1684 km
right ascension of ascending node: 12.3012°
argument of perigee: 107.5426°
revolutions per day: 12.17202020
mean anomaly at epoch: 253.6280°
orbit number at epoch: 53611

The dashed part of the orbit path shows where the satellite is in the earth's shadow,  

DLR